Simultaneous Nadir Overpasses (SNOs) Predictions

Prediction of SNOs between METOP-C and LANDSAT-8 Satellite Orbit:

Table of predicted SNOs for the next 14.0 days since TLE Epoch: 7/24/2021
Index Date (METOP-C) Time (METOP-C) Lat,Lon (METOP-C) SZA (METOP-C ) Date (LANDSAT-8) Time (LANDSAT-8) Lat,Lon (LANDSAT-8) SZA (LANDSAT-8 ) Distance(km) Time Diff (sec)
1 07/25/2021 12:57:45 -81.15,-154.38 116.40 07/25/2021 12:58:57 -81.14,-154.38 116.37 0.40 72
2 07/25/2021 13:48:24 81.17, 13.60 63.70 07/25/2021 13:48:22 81.17, 13.73 63.71 2.25 2
3 07/25/2021 14:38:36 -81.36,-167.86 114.93 07/25/2021 14:37:22 -81.64,-168.16 114.83 31.83 74
4 07/28/2021 08:32:05 -81.16, -87.66 115.73 07/28/2021 08:33:13 -81.16, -87.68 115.70 0.44 68
5 07/28/2021 09:22:45 81.17, 79.97 64.32 07/28/2021 09:22:39 81.16, 80.03 64.33 1.08 6
6 07/31/2021 04:06:26 -81.15, -21.33 115.06 07/31/2021 04:07:30 -81.15, -21.38 115.04 0.99 64
7 07/31/2021 04:57:05 81.18, 146.70 65.04 07/31/2021 04:56:55 81.17, 146.66 65.03 0.69 10
8 08/02/2021 23:40:45 -81.16, 45.35 114.31 08/02/2021 23:41:45 -81.16, 45.24 114.30 1.99 60
9 08/03/2021 00:31:24 81.19,-146.59 65.80 08/03/2021 00:31:10 81.18,-146.75 65.77 2.64 14
10 08/05/2021 19:15:07 -81.15, 111.26 113.62 08/05/2021 19:16:02 -81.15, 111.45 113.57 3.21 55



Historial Predications of SNOs between METOP-C and LANDSAT-8
